Regional Weather Roundup
Issued by NWS Sterling, VA

Home | Current Version | Previous Version | Graphics & Text | Print | Product List | Glossary On
Versions: 1 2 3 4 5 6 7 8 9 10 11 12 13 14 15 16 17 18 19 20 21 22 23 24 25 26 27 28
000
ASUS41 KLWX 212010
RWRLWX

REGIONAL WEATHER ROUNDUP
NATIONAL WEATHER SERVICE BALTIMORE MD/WASHINGTON DC
400 PM EDT TUE OCT 21 2014

Note: "FAIR" indicates few or no clouds below 12,000 feet
with no significant weather and/or obstructions to visibility.
 TC=TEMPERATURE CELSIUS

 * =Non NWS site. Station does not report precipitation (e.g. rain,
    snow, etc.), thunder, or fog.

DCZ001-MDZ009-015-VAZ040>042-051-053>054-212100-
WASHINGTON METRO

CITY           SKY/WX    TMP DP  RH WIND       PRES   REMARKS
WASHINGTON NAT PTSUNNY   69  46  43 CALM      29.80F
DULLES         CLOUDY    65  45  48 N8        29.81S
ANDREWS AFB    PTSUNNY   67  48  51 N2        29.80S
FT BELVOIR     PTSUNNY   66  51  59 CALM      29.80F
QUANTICO       PTSUNNY   71  45  39 CALM      29.80F
COLLEGE PARK*  PTSUNNY   66  46  48 NW3       29.80S
LEESBURG*      CLOUDY    64  50  59 N7        29.83S
MANASSAS*      CLOUDY    64  52  63 CALM      29.81R
GAITHERSBURG*  CLOUDY    64  46  52 NW5       29.84F

$$

MDZ006>007-011-014-212100-
BALTIMORE METRO

CITY           SKY/WX    TMP DP  RH WIND       PRES   REMARKS
BWI AIRPORT    PTSUNNY   67  44  43 CALM      29.80S
MD SCIENCE CTR   N/A     66  49  54 MISG      29.81S
MARTIN STATE   MOSUNNY   64  55  72 SE8       29.82S
ANNAPOLIS      SUNNY     65  51  60 SE5       29.81S
FORT MEADE*    MOSUNNY   68  43  40 W5        29.83S

$$

MDZ012-015-019>023-212100-
MARYLAND EASTERN SHORE

CITY           SKY/WX    TMP DP  RH WIND       PRES   REMARKS
OCEAN CITY     MOSUNNY   68  56  65 S5        29.79F
SALISBURY      MOSUNNY   73  48  41 W5        29.79F HAZE
CAMBRIDGE*     SUNNY     72  45  37 N5        29.80F
EASTON*        MOSUNNY   72  48  43 W6        29.84F

$$

MDZ017>025-212100-
SOUTHERN MARYLAND

CITY           SKY/WX    TMP DP  RH WIND       PRES   REMARKS
PATUXENT RIVER MOSUNNY   69  43  38 E7        29.80F
ST INIGOES     SUNNY     70  44  39 VRB6      29.80F
LEONARDTOWN*   MOSUNNY   66  45  45 E5        29.82S

$$

MDZ003>005-212100-
NORTH CENTRAL MARYLAND

CITY           SKY/WX    TMP DP  RH WIND       PRES   REMARKS
FREDERICK*     PTSUNNY   70  46  43 NW6       29.84S
HAGERSTOWN APT LGT RAIN  56  51  84 W8        29.84R
WESTMINSTER*   CLOUDY    63  48  59 W3        29.82S

$$

MDZ501>502-212100-
WESTERN MARYLAND

CITY           SKY/WX    TMP DP  RH WIND       PRES   REMARKS
OAKLAND*       CLOUDY    43 N/A N/A NW7       29.88R FOG
CUMBERLAND*    CLOUDY    54  52  94 W8        29.92R

$$

VAZ025>031-212100-
SHENANDOAH VALLEY

CITY           SKY/WX    TMP DP  RH WIND       PRES   REMARKS
WINCHESTER*    RAIN      57  46  67 W9        29.84R
FRONT ROYAL*   CLOUDY    55  48  76 CALM      29.84R
LURAY*         LGT RAIN  61  50  67 W5        29.84R
NEW MARKET*    CLOUDY    54  50  85 E3        29.86R
STAUNTON*      DRIZZLE   57  49  75 W5        29.86R
WAYNESBORO*    CLOUDY    57  44  62 W13G23    29.85R

$$

WVZ021-048>050-054>055-212100-
EASTERN WEST VIRGINIA PANHANDLE

CITY           SKY/WX    TMP DP  RH WIND       PRES   REMARKS
MARTINSBURG    LGT RAIN  55  49  80 N8        29.84S
PETERSBURG*    RAIN     N/A N/A N/A CALM      29.89R

$$

VAZ036>039-050-212100-
CENTRAL FOOTHILLS

CITY           SKY/WX    TMP DP  RH WIND       PRES   REMARKS
CHARLOTTESVILL PTSUNNY   67  46  47 NE5       29.79S
CULPEPER*      PTSUNNY   64  50  59 N8        29.82R
ORANGE*        CLOUDY    70  50  49 S5        29.81S
GORDONSVILLE*  FAIR      67  47  49 S3        29.79F
WARRENTON*     CLOUDY    63  58  84 N6        29.80F

$$

VAZ055>057-212100-
NORTH AND CENTRAL PIEDMONT

CITY           SKY/WX    TMP DP  RH WIND       PRES   REMARKS
FREDERICKSBRG* PTSUNNY   70  48  45 CALM      29.79R
STAFFORD*      PTSUNNY   66  46  47 E6        29.84R

$$

NCZ024-NYZ072-PAZ021-071-VAZ022-071-212100-
OTHER REGIONAL OBSERVATIONS

CITY           SKY/WX    TMP DP  RH WIND       PRES   REMARKS
NEW YORK CITY  PTSUNNY   65  52  62 VRB5      29.85F
PHILADELPHIA   MOSUNNY   69  47  45 SW6       29.81S
PITTSBURGH     LGT RAIN  50  47  89 N16G25    29.91R
ROANOKE        PTSUNNY   61  42  49 NW14G25   29.89S
RICHMOND       PTSUNNY   72  44  36 W7        29.79F
RALEIGH        PTSUNNY   71  48  43 VRB5      29.84S

$$

ANZ530>537-212100-
MARINE OBSERVATIONS

STATION/POSITION TIME  TEMP    WIND        PRES
                       AIR SEA DIR/SP/G
                 (UTC) (F)     (DEG/KT/KT) (MB)
THOMAS PT LIGHT  2000   65 64   90/  6/  7 1010.3F
BALT KEY BRIDGE  2000   63     120/  8/ 10 1008.9F
COVE POINT       2000   65      50/  3/  4 1009.1F
LEWISETTA        2000   65 64  110/  7/  8 1008.8F
SOLOMONS ISLAND  2000      67                N/A
PINEY POINT      2000          170/  5/  5   N/A

$$




USA.gov is the U.S. government's official web portal to all federal, state and local government web resources and services.